Tallevast, FL

1:05 AM EST on February 25, 2017 (GMT -0500)
Sarasota-bradenton

Weather History for KSRQ - May, 2014

Change the Weather History Date:

Saturday, May 31, 2014

  Actual Average Record
Temperature  
Mean Temperature 80 °F 79 °F  
Max Temperature 89 °F 88 °F 94 °F (1953)
Min Temperature 70 °F 70 °F 57 °F (1971)
Degree Days  
Heating Degree Days 0 0  
Month to date heating degree days 0 0  
Since 1 July heating degree days 345 477  
Cooling Degree Days 15 14  
Month to date cooling degree days 394 354  
Year to date cooling degree days 812 751  
Growing Degree Days 29 (Base 50)    
Moisture  
Dew Point 70 °F    
Average Humidity 82    
Maximum Humidity 93    
Minimum Humidity 55    
Precipitation  
Precipitation 0.41 in 0.10 in 2.52 in (1957)
Month to date precipitation 7.05 2.21  
Year to date precipitation 18.38 13.70  
Sea Level Pressure  
Sea Level Pressure 30.00 in    
Wind  
Wind Speed 6 mph (ESE)    
Max Wind Speed 17 mph    
Max Gust Speed 21 mph    
Visibility 9 miles    
Events Rain , Thunderstorm    
T = Trace of Precipitation, MM = Missing Value Source: NWS Daily Summary

Daily Weather History Graph

Daily Weather History Graph

Search for Another Location

Airport or City:

Trip Planner

Search our weather history database for the weather conditions in past years. The results will help you decide how hot, cold, wet, or windy it might be!

Date:

Astronomy

May. 31, 2014 Rise Set
Actual Time 6:35 AM EDT 8:20 PM EDT
Civil Twilight 6:09 AM EDT 8:46 PM EDT
Nautical Twilight 5:38 AM EDT 9:18 PM EDT
Astronomical Twilight 5:04 AM EDT 9:51 PM EDT
Moon 9:05 AM EDT (5/31) 10:46 PM EDT (5/31)
Length of Visible Light 14h 37m
Length of Day
13h 44m
Waxing Crescent, 8% of the Moon is Illuminated
May 31
Waxing Crescent
Jun 5
First Quarter
Jun 13
Full
Jun 19
Last Quarter
Jun 27
New

Hourly Weather History & Observations

Time (EDT) Temp. Heat Index Dew Point Humidity Pressure Visibility Wind Dir Wind Speed Gust Speed Precip Events Conditions
12:53 AM 72.0 °F - 68.0 °F 87% 30.01 in 10.0 mi ESE 5.8 mph - N/A   Clear
1:53 AM 71.1 °F - 68.0 °F 90% 30.01 in 10.0 mi East 4.6 mph - N/A   Clear
2:53 AM 71.1 °F - 68.0 °F 90% 29.99 in 10.0 mi East 4.6 mph - N/A   Clear
3:53 AM 71.1 °F - 68.0 °F 90% 29.99 in 10.0 mi East 4.6 mph - N/A   Clear
4:53 AM 71.1 °F - 68.0 °F 90% 29.99 in 10.0 mi East 5.8 mph - N/A   Clear
5:53 AM 71.1 °F - 68.0 °F 90% 30.00 in 10.0 mi East 4.6 mph - N/A   Clear
6:53 AM 71.1 °F - 69.1 °F 93% 30.01 in 10.0 mi East 4.6 mph - N/A   Clear
7:53 AM 73.9 °F - 70.0 °F 87% 30.01 in 10.0 mi East 5.8 mph - N/A   Clear
8:53 AM 77.0 °F - 72.0 °F 84% 30.02 in 10.0 mi ESE 5.8 mph - N/A   Clear
9:53 AM 81.0 °F 85.8 °F 73.0 °F 77% 30.02 in 10.0 mi East 8.1 mph - N/A   Clear
11:53 AM 84.9 °F 89.4 °F 70.0 °F 61% 30.03 in 10.0 mi SSE 4.6 mph - N/A   Partly Cloudy
12:53 PM 87.1 °F 91.3 °F 69.1 °F 55% 30.02 in 10.0 mi North - - N/A   Partly Cloudy
1:53 PM 86.0 °F 92.2 °F 72.0 °F 63% 30.00 in 10.0 mi SW 10.4 mph - N/A   Scattered Clouds
2:53 PM 86.0 °F 92.2 °F 72.0 °F 63% 29.98 in 10.0 mi West 12.7 mph - N/A   Scattered Clouds
3:53 PM 86.0 °F 93.0 °F 73.0 °F 65% 29.96 in 10.0 mi West 11.5 mph - N/A   Clear
4:53 PM 84.9 °F 91.4 °F 73.0 °F 67% 29.95 in 10.0 mi WSW 11.5 mph - N/A Thunderstorm Thunderstorm
5:53 PM 73.9 °F - 66.9 °F 79% 29.97 in 2.5 mi North - - 0.11 in Rain , Thunderstorm Heavy Thunderstorms and Rain
6:11 PM 73.9 °F - 71.1 °F 91% 29.98 in 2.0 mi SE 15.0 mph - 0.22 in Rain , Thunderstorm Rain
6:20 PM 75.0 °F - 71.1 °F 87% 29.98 in 6.0 mi ESE 16.1 mph - 0.22 in Rain , Thunderstorm Light Rain
6:32 PM 75.0 °F - 71.1 °F 87% 29.98 in 5.0 mi SE 11.5 mph - 0.24 in Rain Rain
6:53 PM 75.0 °F - 72.0 °F 90% 29.98 in 5.0 mi SE 9.2 mph - 0.30 in Rain Light Rain
8:53 PM 75.0 °F - 72.0 °F 90% 29.98 in 10.0 mi ENE 3.5 mph - N/A   Clear
9:53 PM 73.9 °F - 71.1 °F 91% 30.00 in 10.0 mi ENE 3.5 mph - N/A   Clear
10:53 PM 73.9 °F - 72.0 °F 93% 30.02 in 10.0 mi NE 3.5 mph - N/A   Clear
11:53 PM 73.9 °F - 72.0 °F 93% 30.03 in 10.0 mi ENE 4.6 mph - N/A   Clear